Location: Clarks Summit,Pa.
(41.5000°N, 75.6000°W)
Time: 13:05:49
(UTC-04:00)

N. Korean satellite - Visible Passes

Search period start: 19 September 2018 00:00
Search period end: 29 September 2018 00:00
Orbit: 458 x 511 km, 97.2° (Epoch: 19 September)

Date Brightness Start Highest point End Pass type
(mag) Time Alt. Az. Time Alt. Az. Time Alt. Az.
19 Sep 10.2 19:48:00 10° WSW 19:49:20 12° W 19:50:40 10° WNW visible
23 Sep 10.0 19:43:38 10° WSW 19:45:23 13° W 19:47:10 10° WNW visible
24 Sep 9.2 19:17:53 10° SSW 19:20:52 26° W 19:23:55 10° NW visible
26 Sep 10.5 06:21:16 10° ENE 06:22:51 12° E 06:24:26 10° ESE visible
27 Sep 9.9 19:39:18 10° SW 19:41:24 15° W 19:43:32 10° NW visible
28 Sep 9.0 19:13:46 10° SSW 19:16:54 29° W 19:20:06 10° NW visible
